[[{"header":{"parameterUnit":"m.s-1","parameterCategory":2,"la1":30.2991,"la2":30.254,"lo1":-89.0895,"lo2":-89.0444,"dy":0.0017,"dx":0.0017,"nx":28,"ny":28,"refTime":"2025-01-07T03:00:00:Z","depth":"0","parameterNumber":2,"parameterNumberName":"U-component_of_CURRENTS"},"data":[0,0,0,0,0,0,0,0,0,0,0,0,0,0,0,0,0,0,0,0,0,0,0,0,0,0,0,0,0,0,0,0,0,0,0,0,0,0,0,0,0,0,0,0,0,0,0,0,0,0,0,0,0,0,0,0,0,0,0.223,0.2231,0,0.2281,0.2281,0.2282,0.23,0.23,0.2299,0.2299,0.2295,0.2295,0.2295,0,0,0,0,0,0,0,0,0,0,0,0,0,0.2166,0.2166,0.223,0.2231,0.2231,0.2281,0.2281,0.2282,0.23,0.23,0.2299,0.2299,0.2295,0.2295,0.2295,0,0,0,0,0,0,0,0,0,0,0,0,0,0.2202,0.2167,0.223,0.2247,0.2249,0.228,0.2281,0.2282,0.23,0.23,0.2299,0.2299,0.2295,0.2295,0.2295,0.2298,0,0,0.2295,0.2295,0,0,0,0,0,0,0,0,0.22,0.2204,0.2244,0.2246,0.2248,0.2284,0.2257,0.2285,0.23,0.228,0.2299,0.2299,0.2287,0.2288,0.2297,0.2298,0.2298,0.2295,0.2295,0.2295,0.2295,0,0,0,0,0,0,0,0.2197,0.2202,0.2249,0.2244,0.2247,0.2258,0.2262,0.2263,0.2282,0.2281,0.2283,0.229,0.2288,0.2297,0.2297,0.2298,0.2295,0.2295,0.2295,0.2295,0.2325,0.2325,0,0,0,0,0,0,0.2192,0.22,0.2248,0.2251,0.2224,0.2259,0.2264,0.2272,0.2283,0.2285,0.229,0.2291,0.2297,0.2297,0.2297,0.2318,0.2295,0.2295,0.2295,0.2324,0.2325,0.2326,0,0,0,0,0,0,0.219,0.2196,0.2246,0.2227,0.2234,0.226,0.2269,0.2273,0.2287,0.2291,0.2291,0.23,0.2297,0.2297,0.2301,0.2317,0.2295,0.2295,0.2323,0.2324,0.2325,0.235,0,0,0,0,0,0,0.2188,0.2195,0.22,0.2227,0.2235,0.2269,0.2269,0.2274,0.2292,0.2293,0.2299,0.2299,0.2297,0.2301,0.2301,0.2317,0.2295,0.2322,0.2323,0.2325,0.2348,0.2352,0.2355,0,0,0,0,0,0.2186,0.2187,0.22,0.2205,0.224,0.2269,0.2275,0.2292,0.2293,0.2303,0.2304,0.2299,0.2311,0.2301,0.2301,0.2318,0.2321,0.2323,0.2325,0.2347,0.2351,0.2355,0,0,0,0,0,0,0.2151,0.2191,0.2204,0.2215,0.2244,0.2273,0.2282,0.2295,0.2306,0.2305,0.2303,0.2303,0.2316,0.2312,0.2302,0.2332,0.2317,0.2319,0.2334,0.2338,0.2342,0.2327,0.2295,0,0,0,0,0,0.215,0.2165,0.2204,0.2211,0.2228,0.2257,0.2271,0.2286,0.23,0.2306,0.2309,0.2314,0.2324,0.2326,0.2333,0.2343,0.234,0.2355,0.2359,0.2362,0.2351,0.236,0.2363,0.2332,0.2332,0.2332,0,0,0.2132,0.216,0.2165,0.2206,0.2229,0.2253,0.2265,0.2289,0.2307,0.2302,0.2317,0.2325,0.233,0.2347,0.2352,0.2344,0.2375,0.2364,0.2367,0.2353,0.2362,0.2365,0.2368,0.2333,0.2333,0.2332,0,0,0.2112,0.2139,0.215,0.218,0.2224,0.2249,0.2257,0.2293,0.2309,0.2324,0.2333,0.2347,0.2353,0.2368,0.2374,0.2399,0.2394,0.2406,0.2409,0.242,0.2422,0.2424,0.2444,0.2447,0.2407,0.2407,0.2407,0,0.2091,0.2117,0.2155,0.218,0.2201,0.2247,0.2263,0.2292,0.2321,0.2328,0.2329,0.2352,0.2363,0.2387,0.2401,0.2407,0.241,0.2393,0.2423,0.2425,0.2426,0.2446,0.2449,0.2408,0.2408,0.2408,0.2408,0,0.2088,0.2111,0.2121,0.217,0.2196,0.2221,0.2269,0.2291,0.2311,0.2332,0.2356,0.2375,0.2385,0.2403,0.2408,0.2433,0.2434,0.2428,0.241,0.2431,0.2451,0.2454,0.241,0.241,0.2409,0.2409,0,0,0.2041,0.2105,0.2111,0.2134,0.2197,0.2219,0.2251,0.2292,0.2314,0.2338,0.2358,0.2386,0.2397,0.2405,0.2425,0.2438,0.2469,0.2436,0.2436,0.2451,0.2497,0.2513,0.2518,0.2465,0.2465,0.2465,0.2513,0,0.2032,0.2068,0.2103,0.2136,0.2163,0.221,0.2239,0.2279,0.2313,0.2346,0.2373,0.2404,0.2401,0.2419,0.2429,0.2467,0.2475,0.2457,0.2477,0.2478,0.2486,0.2521,0.2483,0.2523,0.2516,0.2516,0.2517,0,0.2027,0.2056,0.2082,0.2136,0.2151,0.2173,0.2228,0.226,0.2317,0.2343,0.2366,0.2396,0.2436,0.2429,0.2471,0.2459,0.2471,0.2489,0.2491,0.2493,0.2499,0.2498,0.2529,0.2513,0.2521,0.2521,0.2521,0,0.1993,0.2043,0.2063,0.2083,0.2147,0.2159,0.2194,0.225,0.2285,0.2346,0.2377,0.2413,0.2453,0.2461,0.2507,0.2488,0.2553,0.2533,0.2553,0.2555,0.2519,0.2517,0.2529,0.2541,0.254,0.254,0.254,0,0.1981,0.1998,0.205,0.2064,0.2087,0.2139,0.217,0.2212,0.2279,0.2321,0.2374,0.2423,0.2461,0.2508,0.2519,0.2561,0.2561,0.2557,0.2567,0.253,0.2529,0.251,0.2485,0.2542,0.2542,0.2541,0.2541,0,0.1943,0.1979,0.2004,0.2059,0.2073,0.2089,0.2152,0.2184,0.2255,0.2315,0.2339,0.2442,0.2512,0.2552,0.2599,0.2593,0.2574,0.263,0.2594,0.2598,0.2585,0.2563,0.2464,0.2385,0.265,0.2651,0.2651,0,0.1926,0.1937,0.1983,0.1995,0.2017,0.205,0.2079,0.2156,0.2201,0.2325,0.236,0.2461,0.253,0.2627,0.2656,0.2688,0.2601,0.2651,0.2599,0.2587,0.2569,0.2458,0.239,0.2571,0.257,0.257,0.257,0,0.1889,0.1906,0.1926,0.1951,0.1975,0.1998,0.205,0.2083,0.2183,0.2253,0.2354,0.2423,0.2556,0.2604,0.2674,0.268,0.2561,0.2649,0.2637,0.2509,0.2385,0.2315,0.2548,0.2569,0.2569,0.2569,0.2569,0.2569,0.1852,0.1853,0.188,0.1896,0.1923,0.194,0.1939,0.2017,0.2079,0.2172,0.2291,0.2389,0.2536,0.265,0.2638,0.2644,0.2565,0.2588,0.2565,0.2456,0.236,0.2602,0.2634,0.2634,0.2635,0.2635,0.2635,0,0.179,0.1803,0.1824,0.1835,0.1836,0.187,0.1913,0.1913,0.1958,0.2101,0.2185,0.2371,0.2471,0.2565,0.2655,0.259,0.2443,0.2524,0.2359,0.2295,0.2532,0.2512,0.2517,0.2517,0.2517,0.2517,0.2517,0.2517,0.1758,0.1746,0.176,0.1738,0.1749,0.1721,0.1725,0.1751,0.1836,0.1954,0.2075,0.2204,0.2473,0.2693,0.2695,0.2606,0.2378,0.2295,0.224,0.2446,0.245,0.2453,0.243,0.2418,0.2417,0.1928,0.1925,0.1922]},{"header":{"parameterUnit":"m.s-1","parameterCategory":2,"la1":30.2991,"la2":30.254,"lo1":-89.0895,"lo2":-89.0444,"dy":0.0017,"dx":0.0017,"nx":28,"ny":28,"refTime":"2025-01-07T03:00:00:Z","depth":"0","parameterNumber":3,"parameterNumberName":"V-component_of_CURRENTS"},"data":[0,0,0,0,0,0,0,0,0,0,0,0,0,0,0,0,0,0,0,0,0,0,0,0,0,0,0,0,0,0,0,0,0,0,0,0,0,0,0,0,0,0,0,0,0,0,0,0,0,0,0,0,0,0,0,0,0,0,-0.0403,-0.0403,0,-0.0508,-0.0509,-0.051,-0.0592,-0.0592,-0.0593,-0.0593,-0.0672,-0.0673,-0.0675,0,0,0,0,0,0,0,0,0,0,0,0,0,-0.0311,-0.0312,-0.0402,-0.0404,-0.0405,-0.0507,-0.0509,-0.0511,-0.0592,-0.0592,-0.0593,-0.0593,-0.0671,-0.0673,-0.0675,0,0,0,0,0,0,0,0,0,0,0,0,0,-0.0379,-0.0312,-0.0402,-0.0455,-0.0461,-0.0507,-0.0509,-0.0511,-0.0591,-0.0592,-0.0593,-0.0594,-0.0671,-0.0673,-0.0675,-0.0674,0,0,-0.0683,-0.0684,0,0,0,0,0,0,0,0,-0.0375,-0.0382,-0.0447,-0.0452,-0.0458,-0.0535,-0.0506,-0.0564,-0.0591,-0.0545,-0.0593,-0.0594,-0.0621,-0.0628,-0.065,-0.0678,-0.0681,-0.0683,-0.0684,-0.0686,-0.0686,0,0,0,0,0,0,0,-0.037,-0.0379,-0.0447,-0.0448,-0.0455,-0.0487,-0.0498,-0.0517,-0.0579,-0.0549,-0.0554,-0.0562,-0.0625,-0.0648,-0.0652,-0.0682,-0.0683,-0.0685,-0.0687,-0.0688,-0.0702,-0.0701,0,0,0,0,0,0,-0.0349,-0.0374,-0.0443,-0.045,-0.0415,-0.0488,-0.05,-0.0512,-0.0579,-0.059,-0.0561,-0.0565,-0.0643,-0.0649,-0.0655,-0.0641,-0.0685,-0.0688,-0.0689,-0.0703,-0.0702,-0.0701,0,0,0,0,0,0,-0.0347,-0.0354,-0.0439,-0.0412,-0.0425,-0.0488,-0.0501,-0.0513,-0.0535,-0.0588,-0.0599,-0.0569,-0.0644,-0.0652,-0.0667,-0.0646,-0.0689,-0.0691,-0.0705,-0.0703,-0.0702,-0.0624,0,0,0,0,0,0,-0.0344,-0.0353,-0.0354,-0.041,-0.0425,-0.0453,-0.05,-0.0515,-0.0537,-0.0543,-0.0598,-0.0607,-0.0645,-0.0663,-0.067,-0.065,-0.0693,-0.0706,-0.0704,-0.0702,-0.0628,-0.062,-0.0613,0,0,0,0,0,-0.034,-0.0332,-0.0354,-0.0362,-0.0425,-0.0452,-0.0463,-0.0513,-0.0536,-0.0537,-0.0576,-0.0605,-0.0655,-0.0664,-0.0672,-0.0652,-0.0707,-0.0705,-0.0702,-0.0631,-0.0621,-0.0613,0,0,0,0,0,0,-0.0283,-0.0341,-0.0366,-0.0373,-0.0405,-0.0465,-0.0468,-0.0502,-0.0537,-0.0541,-0.0596,-0.0606,-0.0614,-0.0639,-0.0648,-0.065,-0.0684,-0.0683,-0.0627,-0.0618,-0.0611,-0.058,-0.0695,0,0,0,0,0,-0.0271,-0.0285,-0.0338,-0.034,-0.0353,-0.0409,-0.0426,-0.0458,-0.0496,-0.0513,-0.0551,-0.0585,-0.061,-0.0619,-0.0647,-0.0644,-0.0666,-0.0635,-0.0627,-0.0621,-0.06,-0.0622,-0.0614,-0.0693,-0.0693,-0.0693,0,0,-0.0246,-0.028,-0.0286,-0.0329,-0.0359,-0.0364,-0.0421,-0.0437,-0.0437,-0.0512,-0.052,-0.0563,-0.0605,-0.061,-0.0613,-0.0627,-0.061,-0.0618,-0.0612,-0.0594,-0.0619,-0.0611,-0.0604,-0.0692,-0.0692,-0.0692,0,0,-0.0198,-0.0234,-0.023,-0.0252,-0.029,-0.0322,-0.0321,-0.0374,-0.0394,-0.0409,-0.0462,-0.0487,-0.0526,-0.0551,-0.0568,-0.0532,-0.0575,-0.0542,-0.0475,-0.0496,-0.049,-0.0485,-0.0503,-0.05,-0.0533,-0.0532,-0.0532,0,-0.0167,-0.0175,-0.0227,-0.0226,-0.0233,-0.0296,-0.0281,-0.0307,-0.0357,-0.0364,-0.0396,-0.0455,-0.0494,-0.0496,-0.0488,-0.0514,-0.0534,-0.0507,-0.0486,-0.0481,-0.0477,-0.0498,-0.0495,-0.0528,-0.0529,-0.0529,-0.053,0,-0.0121,-0.0125,-0.0117,-0.0141,-0.0151,-0.0148,-0.0188,-0.0198,-0.0233,-0.0267,-0.0285,-0.0346,-0.0379,-0.0396,-0.0432,-0.0417,-0.0444,-0.048,-0.0507,-0.0465,-0.0489,-0.0488,-0.0523,-0.0524,-0.0525,-0.0526,0,0,-0.0064,-0.0083,-0.0081,-0.0076,-0.0108,-0.011,-0.0099,-0.0114,-0.0108,-0.0158,-0.0154,-0.0203,-0.0248,-0.0269,-0.0321,-0.0335,-0.0331,-0.0384,-0.0387,-0.0399,-0.0375,-0.0397,-0.0399,-0.0368,-0.0367,-0.0367,-0.0404,0,-0.0014,0.0012,-0.0012,0.0023,0.0033,-0.0007,0.0007,-0.0012,-0.0043,-0.0056,-0.0113,-0.0136,-0.0195,-0.0216,-0.0237,-0.0315,-0.0324,-0.0317,-0.0417,-0.0419,-0.0442,-0.0396,-0.041,-0.0445,-0.0404,-0.0403,-0.0403,0,0.0032,0.0041,0.0084,0.0095,0.0098,0.011,0.0117,0.0119,0.0089,0.0062,0.003,-0.0025,-0.0055,-0.0117,-0.02,-0.0195,-0.0265,-0.0323,-0.0327,-0.0369,-0.0439,-0.0481,-0.0445,-0.0607,-0.0402,-0.0402,-0.0402,0,0.0087,0.0108,0.0147,0.015,0.0153,0.017,0.017,0.0153,0.0166,0.0133,0.0132,0.0073,0.0042,-0.0043,-0.0164,-0.0182,-0.0259,-0.0308,-0.0387,-0.0391,-0.043,-0.0437,-0.0556,-0.0348,-0.0348,-0.0348,-0.0348,0,0.0139,0.0169,0.0174,0.0193,0.0241,0.0223,0.0264,0.0251,0.0248,0.0273,0.0194,0.02,0.006,-0.0008,-0.0123,-0.0245,-0.0231,-0.0355,-0.0394,-0.0404,-0.0408,-0.0574,-0.067,-0.0349,-0.0349,-0.0349,-0.0348,0,0.0188,0.0192,0.0236,0.0256,0.0266,0.0297,0.0325,0.0355,0.0335,0.0367,0.0364,0.03,0.0207,0.0066,-0.0078,-0.019,-0.0408,-0.0358,-0.0357,-0.0393,-0.0618,-0.0709,-0.0862,-0.0935,-0.0445,-0.0446,-0.0446,0,0.0215,0.0243,0.0285,0.0316,0.0326,0.0365,0.0397,0.0396,0.0433,0.0433,0.0463,0.0388,0.0348,0.0126,-0.0085,-0.028,-0.0434,-0.0423,-0.0456,-0.0613,-0.0743,-0.0815,-0.087,-0.0483,-0.0484,-0.0485,-0.0485,0,0.0269,0.0283,0.0319,0.0382,0.0425,0.0474,0.0521,0.0566,0.0575,0.0599,0.0624,0.0594,0.038,0.0179,-0.0097,-0.0249,-0.0554,-0.0443,-0.0609,-0.0773,-0.0854,-0.0948,-0.048,-0.0491,-0.049,-0.049,-0.049,-0.0489,0.0312,0.0347,0.0396,0.0458,0.0509,0.0578,0.0627,0.0683,0.0748,0.0792,0.0756,0.0725,0.0418,0.004,-0.0184,-0.0611,-0.0608,-0.0739,-0.0832,-0.0886,-0.0968,-0.0502,-0.0557,-0.0556,-0.0556,-0.0556,-0.0556,0,0.0367,0.0405,0.0468,0.0541,0.0605,0.0619,0.071,0.0758,0.0841,0.0876,0.0889,0.07,0.0325,-0.007,-0.0624,-0.093,-0.1054,-0.1117,-0.1232,-0.1266,-0.0855,-0.0868,-0.0987,-0.0987,-0.0987,-0.0986,-0.0986,-0.0986,0.0397,0.0469,0.0501,0.0612,0.0661,0.0745,0.0799,0.0865,0.0908,0.0918,0.0878,0.0822,0.0459,-0.0476,-0.1173,-0.1333,-0.1567,-0.1626,-0.1731,-0.1472,-0.1444,-0.1418,-0.1452,-0.1691,-0.1692,-0.2101,-0.2106,-0.2109]}],[{"header":{"parameterUnit":"m.s-1","parameterCategory":2,"la1":30.2991,"la2":30.254,"lo1":-89.0895,"lo2":-89.0444,"dy":0.0017,"dx":0.0017,"nx":28,"ny":28,"refTime":"2025-01-07T03:00:00:Z","depth":"2","parameterNumber":2,"parameterNumberName":"U-component_of_CURRENTS"},"data":[0,0,0,0,0,0,0,0,0,0,0,0,0,0,0,0,0,0,0,0,0,0,0,0,0,0,0,0,0,0,0,0,0,0,0,0,0,0,0,0,0,0,0,0,0,0,0,0,0,0,0,0,0,0,0,0,0,0,0.2189,0.2189,0,0.2246,0.2246,0.2247,0.2261,0.2261,0.226,0.226,0.2258,0.2258,0.2258,0,0,0,0,0,0,0,0,0,0,0,0,0,0.2123,0.2123,0.2189,0.2189,0.219,0.2246,0.2246,0.2247,0.2261,0.2261,0.226,0.226,0.2258,0.2258,0.2258,0,0,0,0,0,0,0,0,0,0,0,0,0,0.2161,0.2124,0.2188,0.2205,0.2207,0.2245,0.2246,0.2247,0.2261,0.2261,0.226,0.226,0.2258,0.2258,0.2259,0.2266,0,0,0.2259,0.2259,0,0,0,0,0,0,0,0,0.2159,0.2163,0.2202,0.2204,0.2207,0.2247,0.2222,0.2251,0.2261,0.2239,0.226,0.226,0.225,0.2251,0.2261,0.2266,0.2266,0.2259,0.2259,0.2259,0.2259,0,0,0,0,0,0,0,0.2156,0.2161,0.2209,0.2203,0.2206,0.2221,0.2225,0.2228,0.2243,0.2241,0.2242,0.2252,0.2251,0.2261,0.2261,0.2266,0.2259,0.2259,0.226,0.226,0.2299,0.2299,0,0,0,0,0,0,0.2151,0.2158,0.2208,0.2211,0.2183,0.2222,0.2227,0.2233,0.2245,0.2247,0.2252,0.2252,0.2261,0.2261,0.2261,0.2284,0.2259,0.226,0.226,0.2298,0.2299,0.23,0,0,0,0,0,0,0.2149,0.2155,0.2205,0.2188,0.2195,0.2223,0.223,0.2235,0.2251,0.2254,0.2255,0.2265,0.226,0.2261,0.2266,0.2283,0.226,0.226,0.2297,0.2298,0.2299,0.2322,0,0,0,0,0,0,0.2147,0.2154,0.2159,0.2187,0.2196,0.223,0.2231,0.2236,0.2258,0.2259,0.2265,0.2264,0.226,0.2265,0.2266,0.2283,0.226,0.2295,0.2297,0.2299,0.232,0.2324,0.2327,0,0,0,0,0,0.2145,0.2147,0.2159,0.2165,0.2201,0.2231,0.2237,0.2255,0.2259,0.2268,0.227,0.2265,0.2277,0.2266,0.2266,0.2284,0.2295,0.2297,0.2299,0.2318,0.2323,0.2327,0,0,0,0,0,0,0.211,0.215,0.2163,0.2174,0.2204,0.2234,0.2245,0.226,0.2272,0.2272,0.227,0.227,0.2284,0.2281,0.2269,0.2302,0.2288,0.229,0.2303,0.2307,0.231,0.2294,0.226,0,0,0,0,0,0.2109,0.2125,0.2163,0.2172,0.219,0.2221,0.2237,0.2253,0.2267,0.2273,0.2277,0.2283,0.2294,0.2296,0.2303,0.2315,0.2312,0.233,0.2334,0.2336,0.2325,0.2334,0.2337,0.2306,0.2306,0.2306,0,0,0.2094,0.2121,0.2127,0.2168,0.2192,0.2215,0.2229,0.2256,0.2274,0.227,0.2286,0.2295,0.23,0.2317,0.2324,0.2315,0.2349,0.2339,0.2341,0.2327,0.2337,0.2339,0.2342,0.2308,0.2308,0.2307,0,0,0.2076,0.2103,0.2114,0.2143,0.2189,0.2214,0.2224,0.2261,0.2278,0.2295,0.2303,0.2318,0.2327,0.234,0.2346,0.2373,0.2369,0.2383,0.2385,0.2395,0.2397,0.2399,0.2418,0.2421,0.2383,0.2383,0.2383,0,0.2057,0.2082,0.212,0.2143,0.2165,0.2212,0.2229,0.2258,0.2289,0.2298,0.2299,0.2326,0.2337,0.2359,0.2373,0.238,0.2385,0.2367,0.2398,0.24,0.2401,0.242,0.2423,0.2385,0.2385,0.2384,0.2384,0,0.2055,0.2077,0.2087,0.2135,0.216,0.2187,0.2233,0.2257,0.228,0.2302,0.2328,0.2346,0.2358,0.2377,0.2381,0.2406,0.2408,0.2403,0.2384,0.2405,0.2425,0.2428,0.2387,0.2386,0.2386,0.2385,0,0,0.2011,0.2073,0.2079,0.2102,0.2163,0.2185,0.2216,0.2257,0.228,0.2306,0.2328,0.2355,0.2368,0.2376,0.2397,0.2409,0.2439,0.2409,0.2409,0.2422,0.2467,0.2479,0.2483,0.2437,0.2437,0.2437,0.2483,0,0.2003,0.2038,0.2072,0.2104,0.213,0.2177,0.2205,0.2245,0.2279,0.2314,0.2341,0.2373,0.2371,0.2391,0.24,0.2437,0.2444,0.2427,0.2449,0.245,0.2451,0.2485,0.2278,0.2301,0.2486,0.2486,0.2487,0,0.1998,0.2027,0.2053,0.2106,0.2121,0.2142,0.2197,0.2229,0.2285,0.2313,0.2337,0.2367,0.2406,0.24,0.244,0.243,0.2441,0.2459,0.2461,0.2459,0.2466,0.2306,0.2299,0.2491,0.2491,0.2491,0.249,0,0.1968,0.2016,0.2037,0.2056,0.2118,0.2132,0.2166,0.2221,0.2256,0.2318,0.2349,0.2384,0.2425,0.2433,0.2477,0.2459,0.2521,0.2502,0.2516,0.2518,0.2338,0.2323,0.2508,0.2508,0.2508,0.2508,0.2508,0,0.1957,0.1975,0.2025,0.204,0.2064,0.2114,0.2146,0.2187,0.2254,0.2296,0.2348,0.2396,0.2433,0.2479,0.2488,0.2526,0.2529,0.252,0.253,0.2344,0.2331,0.2485,0.2482,0.251,0.2509,0.2509,0.2509,0,0.1922,0.1957,0.1982,0.2036,0.2051,0.2068,0.2131,0.2163,0.2234,0.2292,0.2317,0.2416,0.2483,0.252,0.2565,0.2557,0.2584,0.2589,0.2382,0.2368,0.2567,0.2565,0.2601,0.2602,0.2603,0.2603,0.2604,0,0.1906,0.1917,0.1964,0.1976,0.1999,0.2032,0.2061,0.2137,0.2181,0.2303,0.2336,0.2434,0.2495,0.2584,0.2581,0.2601,0.2623,0.2424,0.235,0.257,0.2576,0.2573,0.2569,0.2121,0.2118,0.2115,0.2112,0,0.1871,0.1888,0.1909,0.1934,0.1959,0.1983,0.2034,0.2066,0.2164,0.2229,0.2325,0.2387,0.2485,0.2431,0.2482,0.2461,0.2406,0.237,0.2635,0.215,0.2127,0.213,0.214,0.2087,0.2089,0.2091,0.2093,0.2094,0.1836,0.1838,0.1865,0.1882,0.1909,0.1925,0.1925,0.1987,0.2042,0.2099,0.2227,0.224,0.2282,0.2262,0.2217,0.2175,0.2337,0.2212,0.2216,0.2224,0.2181,0.2162,0.212,0.2123,0.2125,0.2127,0.2129,0,0.1772,0.179,0.1812,0.1823,0.1817,0.1859,0.1899,0.1872,0.1893,0.1961,0.2011,0.1884,0.1879,0.1911,0.1821,0.186,0.1789,0.1777,0.1643,0.1672,0.1698,0.1621,0.1415,0.1413,0.1411,0.1408,0,0,0.174,0.1727,0.1739,0.1714,0.173,0.1687,0.169,0.1667,0.1681,0.165,0.1635,0.1761,0.1855,0.1592,0.1587,0.1477,0.155,0.1423,0.2,0.1871,0.1892,0.1965,0.1886,0,0,0,0,0]},{"header":{"parameterUnit":"m.s-1","parameterCategory":2,"la1":30.2991,"la2":30.254,"lo1":-89.0895,"lo2":-89.0444,"dy":0.0017,"dx":0.0017,"nx":28,"ny":28,"refTime":"2025-01-07T03:00:00:Z","depth":"2","parameterNumber":3,"parameterNumberName":"V-component_of_CURRENTS"},"data":[0,0,0,0,0,0,0,0,0,0,0,0,0,0,0,0,0,0,0,0,0,0,0,0,0,0,0,0,0,0,0,0,0,0,0,0,0,0,0,0,0,0,0,0,0,0,0,0,0,0,0,0,0,0,0,0,0,0,-0.0227,-0.0228,0,-0.0323,-0.0324,-0.0325,-0.039,-0.039,-0.0391,-0.0391,-0.047,-0.0471,-0.0473,0,0,0,0,0,0,0,0,0,0,0,0,0,-0.0152,-0.0153,-0.0227,-0.0228,-0.0229,-0.0323,-0.0324,-0.0326,-0.039,-0.039,-0.0391,-0.0391,-0.0469,-0.0471,-0.0473,0,0,0,0,0,0,0,0,0,0,0,0,0,-0.021,-0.0153,-0.0227,-0.0272,-0.0277,-0.0323,-0.0324,-0.0326,-0.039,-0.039,-0.0391,-0.0392,-0.0468,-0.0471,-0.0473,-0.0477,0,0,-0.0481,-0.0482,0,0,0,0,0,0,0,0,-0.0207,-0.0213,-0.0264,-0.0269,-0.0275,-0.0345,-0.0327,-0.0376,-0.039,-0.0348,-0.0391,-0.0392,-0.0425,-0.0431,-0.0449,-0.0481,-0.0485,-0.0482,-0.0483,-0.0484,-0.0485,0,0,0,0,0,0,0,-0.0203,-0.021,-0.0266,-0.0265,-0.0272,-0.0306,-0.0314,-0.0337,-0.0382,-0.0351,-0.0356,-0.0366,-0.0428,-0.0447,-0.0452,-0.0486,-0.0481,-0.0484,-0.0485,-0.0486,-0.052,-0.052,0,0,0,0,0,0,-0.0186,-0.0205,-0.0263,-0.0268,-0.0241,-0.0306,-0.0316,-0.0322,-0.0382,-0.0392,-0.0365,-0.0368,-0.0442,-0.0449,-0.0455,-0.0452,-0.0484,-0.0487,-0.0488,-0.0521,-0.052,-0.052,0,0,0,0,0,0,-0.0184,-0.019,-0.0259,-0.0239,-0.025,-0.0306,-0.0313,-0.0324,-0.0347,-0.0393,-0.0403,-0.0378,-0.0443,-0.0451,-0.0469,-0.0456,-0.0488,-0.049,-0.0522,-0.0521,-0.052,-0.0453,0,0,0,0,0,0,-0.0181,-0.0189,-0.0191,-0.0237,-0.025,-0.0275,-0.0313,-0.0325,-0.0351,-0.0357,-0.0407,-0.0415,-0.0444,-0.0465,-0.0472,-0.046,-0.0492,-0.0523,-0.0521,-0.052,-0.0456,-0.045,-0.0445,0,0,0,0,0,-0.0178,-0.0172,-0.0191,-0.0198,-0.0251,-0.0274,-0.0284,-0.0327,-0.0351,-0.0352,-0.0388,-0.0414,-0.0462,-0.0467,-0.0475,-0.0463,-0.0523,-0.0522,-0.052,-0.0459,-0.0451,-0.0445,0,0,0,0,0,0,-0.0134,-0.0179,-0.0201,-0.0207,-0.0235,-0.0285,-0.0292,-0.0324,-0.0355,-0.0361,-0.0408,-0.0417,-0.043,-0.0454,-0.0458,-0.0469,-0.0496,-0.0496,-0.0446,-0.044,-0.0434,-0.0402,-0.0494,0,0,0,0,0,-0.0126,-0.0136,-0.018,-0.0183,-0.0195,-0.0244,-0.0262,-0.029,-0.0323,-0.0339,-0.0374,-0.0407,-0.0429,-0.044,-0.0466,-0.047,-0.049,-0.0467,-0.0461,-0.0456,-0.0435,-0.0459,-0.0453,-0.0515,-0.0515,-0.0515,0,0,-0.0107,-0.0135,-0.014,-0.0175,-0.0201,-0.0204,-0.0256,-0.0274,-0.0275,-0.034,-0.035,-0.039,-0.0427,-0.0435,-0.0441,-0.0452,-0.045,-0.0454,-0.045,-0.0431,-0.0457,-0.0451,-0.0446,-0.0514,-0.0514,-0.0514,0,0,-0.007,-0.0099,-0.0095,-0.0114,-0.015,-0.0176,-0.0178,-0.0225,-0.0244,-0.0261,-0.0306,-0.0332,-0.0372,-0.0391,-0.0406,-0.0382,-0.0423,-0.0396,-0.0338,-0.0361,-0.0356,-0.0352,-0.0373,-0.0371,-0.0389,-0.0389,-0.0389,0,-0.0048,-0.005,-0.0094,-0.0092,-0.0099,-0.0157,-0.0144,-0.0167,-0.0213,-0.0221,-0.0251,-0.0309,-0.0345,-0.0348,-0.0341,-0.0367,-0.0389,-0.0362,-0.0353,-0.0349,-0.0346,-0.0369,-0.0367,-0.0386,-0.0386,-0.0387,-0.0387,0,-0.0007,-0.0009,-0.0004,-0.002,-0.003,-0.0029,-0.0062,-0.0075,-0.011,-0.014,-0.0161,-0.0215,-0.0247,-0.0266,-0.0296,-0.0289,-0.0315,-0.0347,-0.0368,-0.0336,-0.0362,-0.0362,-0.0381,-0.0382,-0.0383,-0.0384,0,0,0.004,0.0027,0.0028,0.0035,0.0007,0.0006,0.0014,0.0001,0.0004,-0.0045,-0.0044,-0.009,-0.0133,-0.0152,-0.02,-0.0217,-0.0221,-0.0264,-0.0267,-0.0279,-0.0272,-0.0294,-0.0296,-0.0257,-0.0256,-0.0256,-0.0301,0,0.0083,0.0109,0.009,0.0122,0.0134,0.0097,0.011,0.0092,0.0062,0.0048,-0.0007,-0.003,-0.0085,-0.0106,-0.0129,-0.0203,-0.0217,-0.0206,-0.0306,-0.0308,-0.0327,-0.0295,-0.0268,-0.0306,-0.0301,-0.0301,-0.0301,0,0.0125,0.0135,0.0176,0.0188,0.0191,0.0203,0.0209,0.0211,0.0181,0.0154,0.0121,0.0069,0.0037,-0.002,-0.0104,-0.0098,-0.0167,-0.0223,-0.0228,-0.0265,-0.0329,-0.0338,-0.0307,-0.0302,-0.0302,-0.0301,-0.0301,0,0.0174,0.0196,0.0232,0.0236,0.0242,0.0256,0.0257,0.024,0.0253,0.0218,0.0216,0.0157,0.0126,0.004,-0.0077,-0.0092,-0.0174,-0.0218,-0.0297,-0.03,-0.0303,-0.0307,-0.0263,-0.0262,-0.0262,-0.0262,-0.0262,0,0.0221,0.0249,0.0257,0.0275,0.032,0.0304,0.0342,0.0329,0.0326,0.0349,0.0272,0.0276,0.014,0.0071,-0.0041,-0.0163,-0.015,-0.0269,-0.0306,-0.028,-0.0281,-0.0299,-0.0303,-0.0264,-0.0264,-0.0263,-0.0263,0,0.0265,0.027,0.0312,0.0333,0.0343,0.0371,0.04,0.0427,0.0408,0.0438,0.0434,0.0369,0.0275,0.0138,-0.0006,-0.0114,-0.0234,-0.0281,-0.0239,-0.0269,-0.0354,-0.0353,-0.0369,-0.037,-0.0371,-0.0371,-0.0372,0,0.029,0.0317,0.0358,0.0388,0.0398,0.0434,0.0466,0.0465,0.0501,0.05,0.0528,0.045,0.0408,0.0187,-0.0012,-0.0203,-0.0235,-0.031,-0.0333,-0.0326,-0.0361,-0.0359,-0.0358,-0.0315,-0.0315,-0.0315,-0.0315,0,0.034,0.0353,0.0389,0.045,0.0491,0.0539,0.0584,0.0628,0.0637,0.0659,0.0678,0.0646,0.0439,0.0252,-0.0016,-0.0149,-0.028,-0.0319,-0.0317,-0.0293,-0.0279,-0.0313,-0.0312,-0.0316,-0.0315,-0.0315,-0.0315,-0.0315,0.0379,0.0413,0.0461,0.052,0.057,0.0637,0.0685,0.0738,0.0799,0.0835,0.0797,0.0744,0.0535,0.0194,-0.0033,-0.0281,-0.0279,-0.0366,-0.0364,-0.0363,-0.0349,-0.0338,-0.0382,-0.0382,-0.0383,-0.0383,-0.0383,0,0.0433,0.0467,0.0528,0.0599,0.0662,0.0675,0.0764,0.0812,0.0889,0.0904,0.0906,0.072,0.0497,0.0247,-0.0112,-0.0327,-0.0341,-0.0399,-0.0363,-0.0361,-0.0359,-0.0344,-0.0377,-0.0378,-0.0379,-0.0379,0,0,0.0461,0.0532,0.0562,0.0669,0.0715,0.0802,0.0854,0.0921,0.0952,0.0973,0.0938,0.0863,0.0567,0.0316,0.0028,-0.0178,-0.0226,-0.0223,-0.0205,-0.0128,-0.0124,-0.0318,-0.029,0,0,0,0,0]}],[{"header":{"parameterUnit":"m.s-1","parameterCategory":2,"la1":30.2991,"la2":30.254,"lo1":-89.0895,"lo2":-89.0444,"dy":0.0017,"dx":0.0017,"nx":28,"ny":28,"refTime":"2025-01-07T03:00:00:Z","depth":"4","parameterNumber":2,"parameterNumberName":"U-component_of_CURRENTS"},"data":[0,0,0,0,0,0,0,0,0,0,0,0,0,0,0,0,0,0,0,0,0,0,0,0,0,0,0,0,0,0,0,0,0,0,0,0,0,0,0,0,0,0,0,0,0,0,0,0,0,0,0,0,0,0,0,0,0,0,0.1218,0.1219,0,0.1241,0.1241,0.1241,0.1264,0.1265,0.1266,0.1267,0.1361,0.1362,0.1364,0,0,0,0,0,0,0,0,0,0,0,0,0,0.1163,0.1164,0.1218,0.1219,0.122,0.1241,0.1241,0.1241,0.1264,0.1265,0.1266,0.1267,0.136,0.1362,0.1364,0,0,0,0,0,0,0,0,0,0,0,0,0,0.1182,0.1164,0.1218,0.1238,0.124,0.1241,0.1241,0.1241,0.1264,0.1265,0.1266,0.1268,0.1359,0.1362,0.1364,0.1356,0,0,0.1372,0.1374,0,0,0,0,0,0,0,0,0.1181,0.1183,0.1234,0.1237,0.1239,0.1256,0.1256,0.1285,0.1264,0.125,0.1267,0.1268,0.1335,0.1339,0.1332,0.1361,0.1365,0.1373,0.1374,0.1375,0.1376,0,0,0,0,0,0,0,0.1179,0.1182,0.1222,0.1235,0.1238,0.1235,0.1239,0.1261,0.1282,0.1251,0.1254,0.1264,0.1336,0.133,0.1335,0.1366,0.1373,0.1375,0.1377,0.1378,0.1505,0.1507,0,0,0,0,0,0,0.1188,0.1181,0.1221,0.1223,0.1218,0.1236,0.124,0.1245,0.1281,0.1288,0.1263,0.1266,0.1325,0.1332,0.1339,0.1432,0.1375,0.1378,0.1379,0.1503,0.1505,0.1507,0,0,0,0,0,0,0.1186,0.1191,0.1221,0.1207,0.1212,0.1236,0.1242,0.1245,0.1273,0.129,0.1298,0.1293,0.1326,0.1335,0.1392,0.1433,0.1379,0.1381,0.1501,0.1504,0.1506,0.1555,0,0,0,0,0,0,0.1184,0.119,0.1211,0.1208,0.1213,0.1243,0.1241,0.1245,0.1278,0.1282,0.1318,0.1325,0.1328,0.1388,0.1394,0.1435,0.1383,0.1499,0.1502,0.1506,0.1551,0.1559,0.1566,0,0,0,0,0,0.1182,0.1205,0.1211,0.1218,0.1236,0.1244,0.1246,0.1264,0.1279,0.1293,0.1325,0.1326,0.1414,0.1391,0.1398,0.1441,0.1497,0.1501,0.1505,0.1548,0.1558,0.1566,0,0,0,0,0,0,0.1202,0.121,0.1217,0.1245,0.1255,0.1251,0.1273,0.1282,0.1314,0.1334,0.1345,0.1355,0.1421,0.1424,0.1399,0.1489,0.1458,0.1464,0.1488,0.1497,0.1504,0.1512,0.1386,0,0,0,0,0,0.1213,0.1228,0.1235,0.126,0.1268,0.1275,0.1288,0.1301,0.1322,0.1338,0.1366,0.1402,0.1436,0.1462,0.149,0.1536,0.1535,0.157,0.1578,0.1584,0.1596,0.1618,0.1629,0.1521,0.1521,0.1521,0,0,0.1228,0.1237,0.1247,0.1266,0.1274,0.1296,0.1286,0.1316,0.1348,0.1345,0.1411,0.1432,0.1455,0.1509,0.1539,0.1522,0.1615,0.1589,0.1594,0.1603,0.1624,0.1634,0.1643,0.1524,0.1523,0.1523,0,0,0.1253,0.1273,0.1288,0.1303,0.1329,0.1334,0.1352,0.1371,0.1395,0.1446,0.1461,0.1506,0.1556,0.1578,0.1594,0.166,0.1654,0.1678,0.1722,0.1744,0.1752,0.176,0.1771,0.1779,0.1681,0.1681,0.1681,0,0.1273,0.1292,0.1297,0.132,0.1341,0.1358,0.1384,0.141,0.1451,0.1476,0.1482,0.1564,0.1586,0.1647,0.1675,0.1678,0.1686,0.1683,0.1752,0.176,0.1767,0.1776,0.1785,0.1683,0.1683,0.1683,0.1683,0,0.1296,0.1329,0.1343,0.1374,0.1399,0.1426,0.1458,0.1499,0.1532,0.1553,0.1626,0.165,0.1695,0.1715,0.1719,0.1788,0.1776,0.1757,0.1725,0.178,0.1787,0.1795,0.1688,0.1687,0.1686,0.1685,0,0,0.1285,0.1345,0.1353,0.1378,0.1431,0.1447,0.1513,0.1557,0.1601,0.1652,0.1702,0.1767,0.1781,0.1801,0.1815,0.1842,0.1899,0.1831,0.1831,0.1834,0.1948,0.1835,0.1832,0.1893,0.1895,0.1896,0.1932,0,0.1299,0.1349,0.1379,0.1438,0.1462,0.1507,0.156,0.1614,0.1657,0.1714,0.1755,0.1812,0.1814,0.1843,0.1874,0.1896,0.1923,0.1891,0.1902,0.1902,0.1788,0.1839,0.1902,0.1938,0.1939,0.1941,0.1942,0,0.1299,0.1335,0.1392,0.1462,0.1477,0.1526,0.1602,0.1652,0.1734,0.177,0.1831,0.1861,0.1932,0.1913,0.198,0.1962,0.1969,0.1975,0.1975,0.1859,0.1803,0.1873,0.1955,0.1954,0.1953,0.1952,0.1952,0,0.1263,0.1339,0.1386,0.1411,0.1497,0.1542,0.1593,0.1674,0.172,0.1814,0.1854,0.1926,0.1971,0.1999,0.2026,0.2011,0.2079,0.2047,0.1951,0.1942,0.201,0.2001,0.2089,0.2089,0.2089,0.2089,0.2089,0,0.1244,0.1285,0.138,0.1406,0.1467,0.1535,0.1606,0.1666,0.1756,0.1807,0.1885,0.1928,0.1999,0.2041,0.2049,0.2026,0.2096,0.197,0.1948,0.203,0.2023,0.2015,0.2006,0.209,0.209,0.209,0.209,0,0.1193,0.1257,0.1315,0.1417,0.1452,0.1498,0.1608,0.1653,0.175,0.1819,0.1855,0.1954,0.2002,0.205,0.2096,0.2042,0.2036,0.201,0.2105,0.2086,0.1878,0.1871,0.1895,0.1892,0.1888,0.1886,0.1884,0,0.1168,0.1197,0.131,0.1348,0.1401,0.1481,0.1532,0.1639,0.1684,0.1814,0.1836,0.1928,0.1976,0.1944,0.2009,0.2008,0.1987,0.1969,0.1916,0.1884,0.1861,0.1859,0.1857,0.1879,0.1878,0.1877,0.1877,0,0.1119,0.1174,0.1223,0.13,0.1365,0.1419,0.1502,0.1523,0.1638,0.1742,0.1766,0.179,0.184,0.1865,0.1885,0.1882,0.197,0.1936,0.1941,0.1892,0.1865,0.1844,0.1845,0.1866,0.1868,0.1868,0.1869,0,0.1085,0.1105,0.1179,0.1235,0.131,0.1336,0.1387,0.1436,0.1488,0.1625,0.1631,0.1724,0.1816,0.1802,0.1821,0.181,0.1777,0.1711,0.1728,0.174,0.1675,0.1617,0.1531,0,0,0,0,0,0.1039,0.1054,0.1106,0.1159,0.1229,0.1267,0.1357,0.141,0.1519,0.1492,0.1554,0.1589,0.1612,0.1667,0.1624,0.1764,0.1793,0.1708,0.1728,0.1807,0.182,0.1757,0,0,0,0,0,0,0.1008,0.1053,0.1075,0.1083,0.1103,0.1161,0.121,0.1284,0.1273,0.1388,0.1407,0.1495,0.1542,0.1614,0.1592,0.161,0.159,0.1773,0.1769,0.18,0.1812,0.1821,0.1761,0,0,0,0,0]},{"header":{"parameterUnit":"m.s-1","parameterCategory":2,"la1":30.2991,"la2":30.254,"lo1":-89.0895,"lo2":-89.0444,"dy":0.0017,"dx":0.0017,"nx":28,"ny":28,"refTime":"2025-01-07T03:00:00:Z","depth":"4","parameterNumber":3,"parameterNumberName":"V-component_of_CURRENTS"},"data":[0,0,0,0,0,0,0,0,0,0,0,0,0,0,0,0,0,0,0,0,0,0,0,0,0,0,0,0,0,0,0,0,0,0,0,0,0,0,0,0,0,0,0,0,0,0,0,0,0,0,0,0,0,0,0,0,0,0,0.0267,0.0267,0,0.0286,0.0286,0.0286,0.0311,0.0311,0.0311,0.0311,0.0276,0.0275,0.0274,0,0,0,0,0,0,0,0,0,0,0,0,0,0.0259,0.0259,0.0267,0.0267,0.0267,0.0286,0.0286,0.0286,0.0311,0.0311,0.0311,0.0311,0.0277,0.0275,0.0274,0,0,0,0,0,0,0,0,0,0,0,0,0,0.027,0.0259,0.0267,0.028,0.0281,0.0285,0.0286,0.0287,0.031,0.0311,0.0311,0.0311,0.0277,0.0276,0.0274,0.0257,0,0,0.0269,0.0268,0,0,0,0,0,0,0,0,0.027,0.0271,0.0278,0.0279,0.0281,0.0294,0.027,0.0273,0.031,0.0301,0.0311,0.0312,0.0276,0.0274,0.0281,0.0255,0.0253,0.0268,0.0267,0.0267,0.0266,0,0,0,0,0,0,0,0.0269,0.027,0.0276,0.0278,0.028,0.0287,0.0289,0.0271,0.0287,0.0302,0.0304,0.0302,0.0277,0.0282,0.028,0.0253,0.0269,0.0267,0.0266,0.0265,0.0207,0.0206,0,0,0,0,0,0,0.0262,0.0269,0.0276,0.0277,0.0274,0.0287,0.0289,0.0291,0.0288,0.0288,0.0302,0.0303,0.0285,0.0282,0.0278,0.0256,0.0267,0.0265,0.0264,0.0207,0.0207,0.0206,0,0,0,0,0,0,0.0262,0.0263,0.0275,0.0272,0.0274,0.0286,0.0288,0.0291,0.0301,0.0289,0.0288,0.0309,0.0285,0.0281,0.0257,0.0255,0.0264,0.0263,0.0208,0.0207,0.0206,0.0212,0,0,0,0,0,0,0.0262,0.0262,0.0266,0.0271,0.0274,0.028,0.0288,0.0291,0.0299,0.0301,0.0294,0.0291,0.0285,0.026,0.0256,0.0253,0.0261,0.0208,0.0207,0.0206,0.0212,0.0211,0.021,0,0,0,0,0,0.0261,0.0263,0.0266,0.0266,0.0276,0.028,0.0282,0.0293,0.0299,0.0303,0.0291,0.0292,0.0251,0.0258,0.0253,0.025,0.0209,0.0208,0.0207,0.0213,0.0212,0.0211,0,0,0,0,0,0,0.0256,0.0265,0.0269,0.0272,0.0276,0.0283,0.0289,0.0293,0.029,0.0289,0.028,0.0276,0.0257,0.0248,0.0256,0.0229,0.0231,0.0229,0.0238,0.0237,0.0236,0.0233,0.026,0,0,0,0,0,0.0256,0.0263,0.0268,0.0269,0.0273,0.0281,0.0285,0.029,0.0285,0.0286,0.0278,0.0264,0.0248,0.0238,0.0224,0.0204,0.0186,0.02,0.0199,0.0198,0.0192,0.0157,0.0152,0.0202,0.0202,0.0202,0,0,0.0253,0.0258,0.0262,0.0269,0.0276,0.0278,0.0285,0.029,0.0289,0.0279,0.0273,0.0259,0.0241,0.0223,0.0214,0.0216,0.0175,0.0196,0.0196,0.019,0.0155,0.015,0.0146,0.0201,0.0201,0.0201,0,0,0.0251,0.0257,0.0266,0.0269,0.0275,0.0277,0.0278,0.0283,0.0286,0.0272,0.0265,0.0245,0.0225,0.021,0.02,0.0181,0.0171,0.0183,0.0176,0.0142,0.0137,0.0133,0.0107,0.0101,0.0183,0.0183,0.0183,0,0.0249,0.0261,0.0266,0.0271,0.0278,0.0277,0.0284,0.028,0.0273,0.027,0.0268,0.0233,0.0217,0.0191,0.0186,0.0179,0.0162,0.0184,0.0141,0.0136,0.0132,0.0106,0.0099,0.0183,0.0183,0.0183,0.0183,0,0.0255,0.0263,0.0267,0.0276,0.0279,0.0285,0.028,0.0276,0.0274,0.0267,0.0245,0.0219,0.0201,0.0191,0.0181,0.0147,0.0146,0.0145,0.0145,0.0127,0.0101,0.0094,0.0183,0.0183,0.0183,0.0183,0,0,0.0264,0.0273,0.0276,0.0288,0.0287,0.0293,0.0282,0.028,0.028,0.0254,0.025,0.0207,0.0197,0.0183,0.0169,0.0133,0.0087,0.0126,0.0124,0.0104,0.0015,0.002,0.0012,0.008,0.0079,0.0078,0.0011,0,0.0275,0.0291,0.0291,0.0305,0.0317,0.031,0.0305,0.0294,0.0284,0.0274,0.0234,0.0222,0.0194,0.0192,0.0147,0.011,0.0066,0.0105,0.0033,0.003,0.0039,0.0003,0.0073,0.0005,0.0003,0.0002,0.0001,0,0.0292,0.0303,0.0323,0.0336,0.0342,0.0343,0.0349,0.0343,0.0313,0.0305,0.027,0.0249,0.0196,0.0179,0.0081,0.011,0.0057,0.0018,0.0015,0.001,0.002,0.0025,-0.0013,-0.0012,-0.0011,-0.001,-0.0009,0,0.0316,0.033,0.0352,0.0356,0.0362,0.0369,0.037,0.0353,0.036,0.0327,0.0328,0.026,0.0241,0.0155,0.0075,0.0078,-0.0031,-0.0033,-0.0086,-0.0085,-0.007,-0.0065,-0.0118,-0.0118,-0.0118,-0.0118,-0.0118,0,0.0336,0.0355,0.0367,0.038,0.0407,0.0398,0.042,0.0407,0.0399,0.0407,0.035,0.034,0.0233,0.0165,0.0078,-0.0025,-0.0031,-0.01,-0.0109,-0.0065,-0.0059,-0.0075,-0.0069,-0.012,-0.012,-0.0119,-0.0119,0,0.0356,0.0365,0.0393,0.0411,0.0421,0.0438,0.0461,0.0474,0.0459,0.0468,0.0462,0.0399,0.0307,0.0198,0.0066,-0.0006,-0.011,-0.0147,-0.0088,-0.009,-0.0144,-0.0137,-0.0218,-0.0218,-0.0219,-0.0219,-0.022,0,0.0367,0.0384,0.0421,0.0443,0.0454,0.0481,0.0502,0.0503,0.052,0.0504,0.0511,0.0434,0.0376,0.0197,0.0072,-0.0099,-0.0124,-0.0179,-0.0179,-0.0157,-0.0158,-0.015,-0.0143,-0.022,-0.0221,-0.0221,-0.0221,0,0.0386,0.0403,0.0427,0.0473,0.0506,0.054,0.057,0.0588,0.0589,0.0584,0.0551,0.0456,0.0351,0.0204,0.0072,-0.0052,-0.0144,-0.0184,-0.0185,-0.0185,-0.0161,-0.0159,-0.0152,-0.0222,-0.0222,-0.0222,-0.0222,0,0.0404,0.0423,0.046,0.0498,0.0544,0.0581,0.0595,0.0611,0.0624,0.0608,0.0596,0.0478,0.0411,0.0228,0.0106,-0.0014,-0.0051,-0.0092,-0.0098,-0.0097,-0.0044,0.0005,-0.0025,0,0,0,0,0,0.0416,0.044,0.048,0.0522,0.0568,0.0595,0.0634,0.0643,0.065,0.0636,0.0618,0.0519,0.0336,0.0255,0.0134,0.0086,-0.0078,-0.0061,-0.0129,-0.0231,-0.023,-0.0188,0,0,0,0,0,0,0.0423,0.0465,0.048,0.0536,0.0569,0.0619,0.0646,0.0652,0.0641,0.0631,0.0538,0.049,0.0312,0.0409,0.0133,0.0096,0.0035,-0.0146,-0.0149,-0.0232,-0.0231,-0.0229,-0.0186,0,0,0,0,0]}]]